Wetbulb
52.28 51.67 52.83 52.64 52.76 52.55 52.78 52.71 52.66 52.68 52.96 53.70 54.40 54.04 53.99 53.83 53.81 52.78 52.58 54.49 55.84 56.97 58.50 58.86 58.93 58.71 58.07 58.03 57.37 56.35 54.78 52.65 53.14 55.39 51.68 51.93 53.27 55.80 55.95 57.03 58.38 57.96 60.48
50.92 50.64 50.65 51.42 51.20 50.48 50.50 50.83 51.31 51.35 52.12 52.21 52.69 52.95 53.08 52.90 51.71 51.23 51.38 51.88 52.15 52.19 53.39 54.47 56.49 59.29 57.15 56.75 56.55 56.73 55.91 55.38 53.88 54.32 52.43 51.77 52.34 53.59 53.40 53.30 55.73 60.05 59.53
50.41 49.67 49.21 49.41 49.14 48.74 49.11 49.63 50.02 50.33 50.91 51.23 51.72 51.69 52.52 52.61 51.79 50.90 50.59 50.63 49.97 49.88 50.34 50.44 50.75 50.69 49.78 52.33 52.27 54.27 55.01 56.31 54.95 55.08 55.09 53.24 52.65 52.56 53.25 53.92 55.78 55.30 57.66
50.27 49.20 48.59 48.01 48.05 47.78 47.94 48.02 48.40 49.18 49.18 49.35 49.56 50.12 50.12 50.14 50.34 49.32 48.45 46.88 46.55 47.60 48.69 48.94 49.11 49.17 48.54 49.31 49.59 49.11 50.23 50.57 52.13 53.01 53.99 54.33 52.42 53.34 51.27 51.07 49.95 51.85 53.82
49.17 47.97 47.48 47.60 47.50 47.58 47.02 46.42 46.89 46.71 46.42 46.89 46.70 46.62 46.76 47.33 49.17 46.31 44.79 43.80 43.24 44.10 45.69 46.72 47.47 49.13 51.90 50.74 48.69 46.78 46.77 47.11 49.32 50.73 51.03 52.50 52.60 50.73 49.53 51.23 51.01 51.89 53.09
48.29 48.07 48.84 48.43 47.89 45.49 45.00 44.87 43.90 43.39 43.06 43.45 43.53 44.13 43.70 45.94 45.56 45.54 44.96 41.63 41.82 41.71 41.49 42.98 43.94 46.23 46.93 48.56 49.29 49.81 48.85 45.57 45.41 46.34 47.34 48.92 51.39 50.81 50.27 49.76 50.52 49.93 49.07
48.04 48.76 47.94 46.15 44.95 43.85 43.58 42.68 41.43 40.72 40.53 40.34 40.61 41.43 41.31 41.89 43.25 43.11 44.23 41.26 39.85 39.98 40.10 40.73 41.75 44.38 45.92 45.50 46.54 47.60 47.36 47.35 47.84 46.00 44.91 46.68 48.51 50.95 51.92 50.09 50.62 49.86 49.06
44.47 44.29 44.49 43.35 42.65 41.70 40.83 39.93 39.17 38.76 38.40 38.70 39.05 39.27 38.70 39.47 41.19 41.00 41.79 40.85 40.78 40.62 40.84 41.79 42.36 43.06 44.64 45.26 44.96 43.98 43.95 44.94 45.39 46.25 46.66 48.04 49.92 52.08 50.28 51.19 51.38 50.84 49.62
42.47 42.12 42.21 41.20 39.81 39.21 38.29 37.37 37.28 36.10 35.74 36.16 36.99 38.10 38.78 39.16 40.40 40.10 40.23 39.77 39.06 39.43 41.19 42.28 41.60 42.14 43.19 41.99 43.06 42.25 42.70 42.96 44.73 44.19 43.69 42.71 42.27 43.08 45.36 47.95 47.67 50.26 49.65
40.25 40.34 40.32 39.08 37.91 36.75 35.74 34.63 33.77 34.43 35.34 37.54 37.26 38.08 39.25 39.00 39.80 39.66 39.66 38.83 38.10 38.63 39.49 40.50 42.22 42.31 41.31 41.12 42.21 41.62 40.29 40.61 41.51 42.03 43.72 44.26 43.92 45.17 44.64 46.75 47.92 48.04 50.80
39.05 38.12 37.36 36.43 34.48 34.24 33.20 32.90 33.74 35.93 36.48 36.58 36.73 37.57 37.90 37.92 38.31 39.16 39.25 38.61 38.24 38.25 38.83 39.68 41.01 41.07 40.06 39.60 39.66 40.98 40.83 42.11 42.07 42.18 42.33 42.87 43.50 43.51 43.94 45.72 49.29 49.26 48.84
36.50 35.28 34.06 33.06 32.73 32.94 31.68 34.33 35.80 35.43 34.84 34.55 35.01 35.14 36.70 38.29 39.44 39.02 38.63 38.88 39.60 38.74 38.82 40.14 40.75 39.85 39.21 38.92 39.37 39.73 39.17 40.12 41.37 41.31 41.39 41.66 41.87 43.32 45.22 45.81 47.77 52.01 53.10
32.97 31.61 30.75 30.77 31.06 32.15 33.99 32.96 32.32 33.50 33.14 33.12 33.71 34.32 35.39 37.16 37.94 38.83 38.49 38.51 39.18 39.28 40.23 40.81 40.08 39.45 38.93 39.25 39.25 39.32 39.53 40.59 40.61 40.30 40.53 40.91 42.15 44.24 46.45 48.35 50.39 52.90 53.43
29.47 28.56 28.71 29.11 31.40 32.36 32.51 32.73 32.20 32.22 32.29 32.56 33.04 33.71 34.93 35.94 36.82 38.14 38.74 39.28 39.84 40.28 40.99 41.05 40.49 39.40 39.12 40.02 40.41 40.89 41.88 42.38 41.14 40.61 40.87 41.93 43.68 45.18 46.46 48.22 50.46 51.46 50.94
28.15 28.23 30.35 30.96 31.05 31.22 32.05 32.26 32.34 33.44 34.02 33.51 33.98 34.65 34.46 34.31 36.38 37.86 37.63 37.61 38.33 38.52 38.21 37.93 37.45 37.37 37.21 37.91 38.80 39.69 41.20 43.60 42.27 42.42 42.63 43.76 45.13 46.12 46.61 48.65 50.11 50.36 50.01
28.55 29.85 29.93 30.72 31.27 31.44 31.16 31.81 34.80 35.41 36.11 35.98 36.15 35.88 36.81 37.19 37.25 37.57 37.65 37.58 37.12 36.84 36.31 35.74 35.48 36.59 36.07 36.83 37.17 38.91 41.22 44.49 44.75 45.22 46.41 46.84 47.05 47.81 48.60 50.28 51.14 49.72 48.70
29.63 29.83 30.41 31.03 30.74 30.77 31.38 31.83 31.32 34.81 37.25 37.25 36.73 36.94 37.21 37.13 37.27 37.38 37.57 36.83 36.10 36.00 35.78 35.79 35.81 36.52 36.87 37.03 38.30 39.78 41.52 46.18 47.75 47.54 47.72 47.94 48.19 48.58 47.43 49.42 49.88 50.97 50.08
30.41 31.82 31.05 30.92 31.56 32.21 32.57 32.80 33.26 33.70 33.27 33.68 36.13 36.47 36.68 36.61 36.44 36.49 36.64 36.82 37.32 37.13 35.99 35.60 35.90 36.81 37.19 38.32 39.95 41.23 43.08 45.33 46.79 48.06 48.08 48.47 48.71 48.70 48.88 49.17 49.83 50.73 51.68
31.06 30.97 31.76 32.13 32.54 32.96 32.59 32.56 32.77 32.89 32.97 33.00 34.05 34.98 35.50 35.87 35.68 36.46 37.33 37.89 37.02 37.12 37.89 38.17 38.94 39.06 39.27 39.79 40.65 41.84 43.52 45.34 47.04 48.65 49.79 48.85 49.62 50.36 50.32 51.60 51.09 44.21 46.42
31.35 32.20 32.45 31.95 31.19 31.23 31.35 31.14 31.48 31.73 31.60 31.98 32.20 32.78 34.40 33.72 34.52 38.09 41.00 40.79 39.06 38.81 39.40 39.48 40.31 41.40 42.22 43.47 44.21 45.02 45.70 46.52 47.27 48.16 48.39 50.35 51.70 52.55 51.56 51.78 50.97 48.38 48.46
31.49 31.48 31.08 31.15 30.60 30.58 30.32 30.14 30.38 30.18 29.87 30.21 31.02 32.76 32.18 32.15 35.15 36.87 38.96 41.45 41.39 41.35 41.27 42.08 43.40 45.04 46.24 46.52 47.25 47.29 49.00 49.54 49.74 47.83 48.46 49.69 51.35 52.26 52.29 50.97 49.80 50.23 51.85
31.92 31.85 31.24 30.47 30.82 30.37 30.18 30.61 30.08 29.48 29.22 29.10 30.08 31.47 31.59 32.72 33.66 35.12 37.28 38.73 42.41 43.91 44.54 45.05 45.47 46.00 47.00 47.65 49.11 51.28 50.71 49.24 48.88 50.14 51.30 53.10 52.37 52.31 52.42 51.79 51.46 51.47 51.99
33.50 33.12 32.01 31.43 31.22 30.35 30.25 30.43 30.08 29.51 29.03 28.99 29.30 29.76 30.27 30.81 32.13 33.63 34.99 37.23 39.69 42.17 45.32 46.45 46.75 47.27 48.84 50.66 50.79 50.14 50.92 51.65 50.79 51.51 52.12 53.68 53.59 52.81 52.78 52.66 51.99 52.15 51.37
32.55 31.67 31.39 31.53 31.55 30.37 30.17 29.88 30.04 29.84 29.62 29.30 29.00 29.28 29.26 29.95 30.95 32.14 33.68 35.31 37.42 39.02 41.16 46.05 47.66 47.75 50.56 49.55 49.11 48.57 45.88 51.01 55.33 54.57 54.65 54.53 53.47 51.74 54.05 53.75 54.05 53.85 49.39
31.49 30.56 30.41 29.97 29.94 29.75 29.66 29.63 29.55 29.64 29.60 29.69 28.97 28.97 28.92 29.67 30.20 31.33 32.65 34.08 35.15 36.26 38.88 41.84 45.78 48.82 50.87 49.19 48.02 45.68 38.26 35.90 47.20 44.79 54.74 55.06 54.38 54.07 53.82 53.60 52.89 52.73 46.72
30.16 30.22 29.82 29.11 28.78 28.77 28.69 28.75 28.70 29.17 29.10 29.65 29.54 29.25 29.01 29.23 29.63 30.32 31.59 32.62 33.40 35.18 37.55 40.37 42.84 46.43 49.24 47.34 43.81 37.09 34.69 35.18 42.62 38.80 52.83 53.77 53.01 53.23 53.51 52.87 52.49 52.94 46.76
MSLP
1012.78 1012.97 1012.98 1012.89 1012.78 1012.87 1013.08 1012.91 1012.99 1012.91 1012.64 1012.68 1012.44 1012.23 1011.87 1011.59 1011.44 1011.34 1011.21 1011.09 1010.93 1010.79 1010.26 1010.36 1010.08 1009.72 1010.06 1009.97 1009.90 1010.06 1010.17 1010.59 1010.44 1009.58 1009.84 1009.44 1009.28 1008.86 1008.54 1008.61 1008.68 1008.66 1008.41
1012.78 1012.88 1013.20 1013.14 1013.07 1013.20 1013.15 1013.12 1012.99 1012.92 1012.88 1012.66 1012.27 1012.09 1011.90 1011.47 1011.30 1011.38 1011.41 1011.16 1011.08 1010.75 1010.55 1010.37 1010.27 1010.03 1009.91 1009.72 1009.76 1009.66 1009.51 1009.56 1009.62 1008.92 1009.15 1009.08 1008.95 1008.39 1008.26 1008.32 1008.10 1007.80 1007.75
1012.65 1012.82 1013.17 1013.15 1013.13 1013.28 1013.27 1013.17 1013.09 1012.90 1012.96 1012.69 1012.34 1012.22 1012.07 1011.61 1011.34 1011.13 1011.11 1010.97 1010.85 1010.77 1010.77 1010.83 1010.67 1010.24 1010.01 1009.91 1009.80 1009.64 1009.45 1009.24 1008.99 1008.79 1008.38 1008.44 1008.34 1008.10 1007.98 1007.82 1007.67 1007.44 1007.35
1012.62 1012.76 1012.80 1012.89 1012.93 1012.90 1013.02 1013.00 1012.96 1012.96 1012.90 1012.78 1012.73 1012.56 1012.14 1011.81 1011.41 1011.45 1011.36 1011.43 1011.23 1011.01 1010.80 1010.58 1010.34 1010.20 1010.08 1009.88 1009.63 1009.55 1009.36 1009.04 1008.74 1008.57 1008.28 1008.15 1008.06 1007.71 1007.75 1007.57 1007.60 1007.36 1007.13
1012.73 1012.70 1012.76 1012.66 1012.71 1012.75 1012.92 1012.94 1012.97 1013.02 1013.14 1012.96 1012.69 1012.39 1012.25 1011.98 1011.71 1011.53 1011.41 1011.23 1010.99 1010.67 1010.44 1010.21 1009.91 1009.70 1009.52 1009.37 1009.19 1009.09 1009.04 1008.82 1008.56 1008.30 1008.08 1007.91 1007.67 1007.53 1007.37 1007.11 1007.28 1006.94 1006.66
1012.55 1012.55 1012.47 1012.47 1012.74 1013.12 1013.32 1013.41 1013.35 1013.30 1013.20 1012.90 1012.64 1012.35 1011.94 1011.59 1011.41 1011.17 1010.92 1010.78 1010.48 1010.25 1009.79 1009.41 1009.28 1009.12 1008.77 1008.45 1008.22 1008.20 1008.22 1008.21 1008.12 1007.98 1007.74 1007.43 1007.13 1006.98 1006.81 1006.70 1006.73 1006.91 1006.85
1012.85 1013.02 1013.26 1013.39 1013.56 1013.79 1013.78 1013.72 1013.65 1013.48 1013.14 1012.79 1012.37 1011.91 1011.49 1011.22 1010.93 1010.72 1010.55 1010.35 1010.17 1009.75 1009.42 1009.05 1008.53 1007.98 1007.67 1007.40 1007.22 1007.33 1007.39 1007.33 1007.28 1007.20 1006.88 1006.62 1006.47 1006.31 1006.32 1006.34 1006.30 1006.13 1005.88
1013.90 1014.13 1014.27 1014.36 1014.43 1014.35 1014.20 1014.08 1013.89 1013.58 1013.30 1012.87 1012.23 1011.82 1011.44 1010.78 1010.46 1010.22 1010.16 1010.06 1009.76 1009.30 1008.84 1008.32 1007.88 1007.41 1007.09 1006.83 1006.84 1006.80 1006.72 1006.61 1006.51 1006.41 1006.19 1005.95 1005.72 1005.59 1005.54 1005.52 1005.67 1005.78 1005.48
1015.00 1015.07 1015.13 1015.16 1015.09 1014.88 1014.65 1014.47 1014.18 1013.86 1013.26 1012.61 1011.99 1011.25 1010.86 1010.21 1010.02 1010.07 1010.03 1009.61 1009.03 1008.51 1008.03 1007.65 1007.42 1006.89 1006.44 1006.49 1006.60 1006.33 1005.96 1005.78 1005.85 1005.99 1005.92 1005.75 1005.52 1005.43 1005.43 1005.60 1005.42 1005.05 1005.08
1016.07 1015.99 1015.92 1015.84 1015.69 1015.41 1015.18 1014.82 1014.22 1013.65 1012.85 1012.14 1011.42 1011.05 1010.59 1009.99 1009.56 1009.47 1009.33 1008.95 1008.34 1007.86 1007.44 1007.02 1006.61 1006.38 1006.11 1006.08 1006.12 1005.87 1005.53 1005.22 1005.21 1005.09 1004.99 1004.79 1004.66 1004.53 1004.53 1004.55 1004.54 1004.40 1004.14
1016.79 1016.52 1016.28 1016.11 1015.95 1015.40 1014.94 1014.49 1013.85 1013.21 1012.57 1011.88 1011.12 1010.40 1010.01 1009.72 1008.96 1008.74 1008.52 1008.33 1007.86 1007.31 1006.79 1006.22 1005.80 1005.62 1005.46 1005.38 1005.34 1005.26 1004.99 1004.79 1004.58 1004.48 1004.30 1004.20 1004.11 1003.95 1003.72 1003.61 1003.39 1003.10 1002.87
1017.12 1016.82 1016.56 1016.22 1015.84 1015.29 1014.84 1014.02 1013.41 1012.85 1012.18 1011.53 1010.92 1010.05 1009.42 1008.94 1008.58 1008.17 1007.85 1007.54 1007.13 1006.76 1006.15 1005.67 1005.19 1004.91 1004.76 1004.65 1004.60 1004.47 1004.41 1004.38 1004.18 1003.74 1003.40 1003.21 1003.13 1002.88 1002.50 1002.21 1001.92 1001.64 1001.47
1017.41 1017.05 1016.65 1016.18 1015.67 1015.05 1014.37 1013.84 1013.27 1012.69 1012.09 1011.42 1010.82 1010.04 1009.16 1008.51 1008.12 1007.72 1007.19 1006.76 1006.39 1005.96 1005.41 1004.92 1004.55 1004.26 1004.02 1003.92 1003.82 1003.66 1003.55 1003.38 1002.96 1002.58 1002.18 1001.97 1001.77 1001.51 1001.20 1000.89 1000.51 1000.44 1000.53
1017.51 1016.98 1016.43 1015.93 1015.25 1014.63 1014.15 1013.64 1013.06 1012.50 1011.89 1011.28 1010.68 1009.98 1009.24 1008.38 1007.73 1007.16 1006.63 1006.11 1005.66 1005.19 1004.71 1004.26 1004.07 1003.92 1003.71 1003.40 1003.01 1002.66 1002.27 1001.83 1001.54 1001.35 1001.11 1000.82 1000.66 1000.51 1000.19 999.93 999.50 999.46 999.90
1017.48 1016.92 1016.24 1015.66 1015.08 1014.40 1013.76 1013.24 1012.78 1012.11 1011.70 1011.07 1010.45 1009.82 1009.02 1008.16 1007.39 1006.85 1006.35 1005.73 1005.15 1004.63 1004.25 1003.86 1003.50 1003.25 1002.97 1002.67 1002.23 1001.77 1001.22 1000.56 1000.47 1000.29 1000.06 999.80 999.54 999.34 999.15 999.01 998.74 998.84 999.14
1017.38 1016.68 1016.11 1015.48 1014.77 1014.16 1013.49 1012.48 1011.96 1011.49 1010.89 1010.37 1009.77 1009.30 1008.47 1007.82 1006.99 1006.26 1005.48 1004.86 1004.32 1003.92 1003.54 1003.11 1002.84 1002.66 1002.40 1001.98 1001.51 1000.78 1000.17 999.53 999.29 999.10 998.76 998.57 998.38 998.27 998.18 998.15 998.28 998.47 998.93
1017.17 1016.54 1015.91 1015.23 1014.59 1013.93 1013.23 1012.55 1011.50 1010.35 1010.05 1009.42 1008.93 1008.46 1007.88 1007.25 1006.42 1005.65 1004.87 1004.19 1003.72 1003.55 1003.23 1002.78 1002.44 1002.12 1001.70 1001.24 1000.69 1000.03 999.36 998.66 998.35 998.14 997.91 997.78 997.75 997.70 997.86 997.83 997.87 998.05 998.57
1016.95 1016.30 1015.71 1015.04 1014.37 1013.71 1013.06 1012.36 1011.58 1010.55 1009.46 1008.73 1008.40 1008.09 1007.43 1006.79 1006.00 1005.19 1004.33 1003.69 1003.32 1003.17 1002.97 1002.51 1001.99 1001.50 1001.03 1000.41 999.83 999.24 998.60 998.01 997.48 997.12 996.89 996.80 997.00 997.19 997.32 997.43 997.60 997.90 998.30
1016.71 1016.05 1015.45 1014.83 1014.22 1013.62 1013.02 1012.34 1011.72 1011.03 1010.29 1009.54 1008.57 1007.80 1007.39 1006.67 1005.72 1004.74 1003.82 1003.61 1003.24 1002.76 1002.25 1001.61 1001.02 1000.50 999.92 999.37 998.78 998.30 997.61 996.99 996.53 996.33 995.91 996.11 996.24 996.35 996.50 996.62 996.84 997.69 998.35
1016.53 1015.91 1015.35 1014.81 1014.23 1013.61 1013.04 1012.41 1011.73 1011.10 1010.43 1009.77 1009.07 1008.48 1007.75 1006.87 1005.77 1004.69 1003.86 1003.29 1002.74 1002.18 1001.66 1000.96 1000.30 999.63 998.89 998.19 997.53 997.07 996.61 996.17 995.89 995.71 995.59 995.64 995.66 995.77 995.89 996.12 996.55 997.34 997.86
1016.61 1016.02 1015.45 1014.91 1014.36 1013.85 1013.27 1012.65 1012.03 1011.42 1010.80 1010.13 1009.41 1008.76 1008.23 1007.42 1006.23 1005.27 1004.30 1003.19 1002.36 1001.52 1000.85 1000.18 999.51 998.67 997.95 997.22 996.56 996.08 995.65 995.37 995.03 994.98 995.08 995.24 995.34 995.55 995.85 996.19 996.61 997.18 997.69
1016.82 1016.24 1015.65 1015.12 1014.57 1013.97 1013.42 1012.84 1012.31 1011.73 1011.14 1010.45 1009.62 1008.81 1008.16 1007.39 1006.57 1005.66 1004.71 1003.72 1002.55 1001.51 1000.62 999.85 998.95 998.05 997.07 996.22 995.43 995.00 994.80 994.72 994.58 994.62 994.72 994.91 995.13 995.47 995.83 996.37 996.89 997.39 997.97
1016.86 1016.34 1015.82 1015.30 1014.74 1014.17 1013.59 1013.01 1012.46 1011.94 1011.37 1010.70 1010.00 1009.20 1008.45 1007.73 1006.97 1006.08 1005.11 1004.14 1003.12 1002.01 1000.81 999.87 998.92 997.88 996.87 995.99 995.38 994.91 994.39 994.09 994.08 994.30 994.61 994.81 995.15 995.57 995.92 996.39 997.06 997.61 998.39
1017.47 1016.82 1016.22 1015.61 1015.00 1014.47 1013.91 1013.30 1012.73 1012.15 1011.54 1010.94 1010.28 1009.60 1008.93 1008.19 1007.31 1006.47 1005.46 1004.64 1003.67 1002.55 1001.52 1000.24 999.17 998.43 997.34 996.62 995.90 995.24 994.87 994.20 993.88 994.12 994.56 994.89 995.24 995.65 996.15 996.73 997.25 997.80 998.77
1017.89 1017.34 1016.80 1016.22 1015.59 1014.99 1014.36 1013.73 1013.08 1012.43 1011.78 1011.19 1010.57 1009.90 1009.20 1008.44 1007.66 1006.84 1005.94 1004.98 1004.12 1003.17 1002.04 1001.10 999.90 998.78 997.88 997.43 996.66 996.37 995.72 994.97 994.54 994.48 994.78 995.08 995.62 995.94 996.23 997.02 997.62 998.56 999.59
1018.47 1017.89 1017.38 1016.89 1016.32 1015.70 1015.05 1014.37 1013.64 1012.92 1012.23 1011.52 1010.91 1010.23 1009.51 1008.79 1008.09 1007.31 1006.52 1005.44 1004.40 1003.40 1002.60 1001.67 1000.68 999.76 998.72 998.13 997.48 997.07 996.47 995.97 995.71 995.59 995.52 995.65 995.78 996.32 996.94 997.42 997.84 998.33 999.48
Wind_Speed
6 5 6 5 6 7 6 6 6 6 6 6 5 5 5 5 6 7 7 6 6 6 6 6 7 6 5 5 4 4 5 5 9 6 5 5 4 5 5 4 5 6 7
6 6 5 5 6 6 6 6 6 6 7 7 6 6 6 5 5 5 6 6 6 7 6 6 5 5 5 5 4 7 7 6 7 16 5 5 7 6 6 6 6 6 5
6 6 5 4 3 3 4 5 6 6 7 8 7 8 8 7 7 6 6 6 3 3 4 5 6 6 5 3 4 4 4 4 5 7 9 4 5 4 5 4 5 5 4
5 5 4 3 3 3 4 5 6 6 7 7 7 7 9 9 8 7 7 5 4 4 3 4 5 5 6 4 4 5 5 4 4 4 4 6 5 6 3 4 4 3 4
4 3 1 1 2 3 5 6 6 6 5 5 6 7 6 8 5 7 4 5 5 5 4 6 7 8 12 8 6 6 4 4 4 6 6 4 4 4 5 4 5 4 4
2 3 3 5 6 7 6 6 6 5 5 5 6 7 9 7 10 7 6 5 5 6 9 11 9 15 14 16 15 14 10 7 8 8 9 10 9 4 4 5 5 3 4
4 6 8 8 7 6 6 6 7 6 6 6 7 8 11 10 12 12 11 6 7 10 12 13 13 12 16 13 14 13 13 15 16 12 13 13 11 5 4 4 5 5 5
11 10 9 9 8 7 7 7 7 5 7 7 11 10 11 12 17 15 15 12 11 13 13 13 13 13 12 8 7 9 10 10 9 8 10 10 11 9 5 4 4 5 3
10 9 9 9 9 10 10 8 7 6 10 11 10 12 13 13 16 15 13 10 10 12 11 11 12 14 12 8 9 11 10 10 8 12 16 18 21 18 13 7 8 4 7
9 9 8 8 9 9 6 9 6 9 11 9 11 11 14 13 15 14 12 8 11 9 11 11 15 13 14 11 10 10 10 10 9 9 9 10 13 11 14 12 10 10 5
7 8 8 7 7 10 10 9 9 10 10 10 11 11 12 11 14 15 15 9 9 9 9 9 8 11 11 12 13 10 10 9 11 10 9 8 8 10 10 10 12 13 12
7 8 7 8 9 9 10 10 10 10 10 10 11 11 8 10 13 14 16 16 15 10 10 9 11 13 13 13 11 12 12 11 9 9 9 8 9 9 10 11 14 14 12
7 8 9 10 9 8 9 10 9 8 8 9 8 9 10 9 9 16 17 17 17 11 9 12 17 18 15 10 13 15 15 9 9 10 9 9 10 10 11 11 12 14 12
10 11 9 8 10 9 8 7 7 7 8 8 8 9 9 10 10 9 8 8 12 11 12 9 6 9 11 11 10 10 8 9 9 9 9 10 9 9 9 8 8 9 8
10 9 9 8 9 9 8 8 7 9 9 9 9 9 10 11 11 17 17 13 12 13 14 9 8 7 7 8 8 9 9 8 8 9 9 9 8 8 8 8 5 3 4
11 8 8 8 8 8 8 10 11 15 18 18 20 16 12 17 23 23 23 21 19 16 6 6 6 6 6 7 8 8 8 9 8 8 8 7 7 7 6 4 4 5 6
9 10 8 9 8 8 8 8 10 10 14 15 14 14 15 16 20 21 20 16 12 8 4 5 5 6 6 8 8 8 9 7 7 7 7 6 5 5 3 5 6 4 4
10 16 7 7 7 8 8 8 8 10 12 11 9 14 15 18 21 23 20 11 5 3 3 5 6 6 7 8 8 8 9 8 8 7 8 7 7 7 5 5 5 5 5
8 7 7 7 7 9 7 7 7 8 8 9 10 11 13 19 22 19 14 3 5 5 5 6 7 7 8 9 9 9 10 8 7 6 5 6 7 6 7 7 5 8 7
8 15 11 7 7 7 7 7 7 7 8 8 8 9 10 13 9 10 8 6 5 5 6 7 8 9 9 9 9 8 8 8 6 4 4 4 4 4 4 4 6 6 4
6 7 9 6 7 7 7 8 8 8 8 8 8 9 13 9 9 9 9 9 8 8 7 7 8 8 8 8 8 8 8 7 6 4 4 4 4 5 4 4 4 5 8
6 6 7 7 7 8 8 7 8 8 8 9 9 10 15 8 8 9 9 10 11 10 8 8 8 9 9 8 8 7 5 4 4 3 3 3 4 5 6 6 6 6 8
6 7 7 7 7 9 8 8 8 8 9 9 9 9 9 9 9 9 10 10 10 11 10 9 10 10 9 8 7 5 3 2 4 4 3 3 6 7 6 7 7 6 8
8 9 10 9 8 8 9 9 9 11 9 9 9 9 9 9 9 11 11 10 10 11 11 12 10 11 9 8 8 7 6 5 3 5 7 7 8 8 7 9 8 9 9
9 9 9 10 10 10 10 10 10 10 10 9 9 9 9 9 10 10 10 10 10 11 12 13 11 15 8 10 10 11 9 9 8 7 8 9 9 9 8 8 5 5 11
10 9 8 9 9 10 10 11 11 11 11 11 10 10 10 10 10 10 10 12 11 12 14 11 14 20 16 6 8 8 8 7 7 5 6 7 7 7 5 3 3 5 12
Wind_Direction
89 72 67 48 39 32 20 4 350 339 343 331 318 308 311 312 322 331 325 311 320 303 302 280 269 251 239 242 230 218 217 192 255 264 216 246 261 243 263 248 255 252 257
124 97 75 63 44 27 359 338 333 322 311 300 301 302 296 284 273 277 289 303 301 313 319 333 318 319 290 264 249 250 239 230 232 267 215 224 220 240 235 250 254 229 227
130 117 110 92 54 8 330 309 307 311 310 318 327 321 314 311 304 287 263 273 311 320 349 345 329 339 329 340 346 321 295 273 249 266 279 226 233 242 256 257 247 257 257
91 80 62 27 14 349 310 331 0 2 17 13 9 5 6 349 341 7 12 1 351 332 290 270 270 273 274 278 294 287 290 296 281 255 250 252 214 239 211 223 264 239 259
92 74 37 278 288 319 13 39 49 49 27 10 1 352 348 340 342 335 333 323 318 307 298 295 290 286 288 274 280 273 265 270 280 286 278 260 246 229 205 219 223 241 257
48 358 330 348 7 43 39 32 23 9 352 341 330 319 314 307 301 264 275 271 276 279 291 289 280 282 275 269 263 257 244 239 256 260 266 259 251 231 246 216 198 200 249
19 8 26 39 41 24 10 6 357 343 325 317 306 308 309 305 301 303 290 297 294 291 284 281 277 271 271 264 263 263 262 250 242 253 254 249 255 231 228 237 242 204 204
45 37 29 24 14 4 357 348 330 317 312 314 309 307 301 291 295 295 304 299 289 283 279 278 278 281 272 269 271 269 266 262 260 265 267 272 261 251 203 202 231 258 287
35 24 20 12 355 345 336 326 317 317 309 302 298 297 298 297 300 291 286 288 283 281 281 279 279 273 272 233 255 262 270 269 269 273 271 274 274 272 260 274 269 238 230
13 4 357 350 338 324 316 311 288 292 296 304 301 290 284 290 294 295 298 293 289 287 284 279 275 273 270 258 260 269 268 267 271 273 271 254 252 251 242 248 247 244 259
350 341 336 332 327 318 308 306 302 301 295 296 297 299 297 293 294 299 293 287 281 283 283 287 280 266 255 255 252 257 257 270 275 272 269 263 258 263 260 250 240 231 224
335 326 326 319 313 310 302 306 303 304 303 304 304 303 303 301 296 295 293 285 284 281 277 278 280 273 258 253 260 260 255 264 270 263 252 248 256 250 251 242 239 226 219
332 325 316 312 307 299 310 312 306 305 304 303 302 302 305 307 303 299 291 289 287 281 275 271 270 275 277 262 250 253 256 258 254 248 242 246 247 249 251 255 234 221 205
327 319 314 310 315 315 305 300 301 303 300 298 300 299 299 299 302 301 297 296 291 288 286 280 271 288 283 273 273 266 261 249 236 237 242 247 249 250 246 250 250 197 201
321 313 310 313 310 308 302 301 297 286 282 292 292 290 294 294 292 291 291 293 290 285 284 277 272 268 274 275 271 271 269 252 231 234 237 241 244 235 232 245 231 186 178
315 313 312 310 306 305 305 306 291 280 285 279 272 269 282 277 284 289 293 289 288 292 280 265 261 257 262 272 276 274 267 258 229 234 237 234 229 224 219 211 209 194 194
311 309 305 309 305 307 306 304 306 310 293 284 283 294 297 300 310 314 311 297 294 306 271 273 267 264 266 268 265 263 271 271 243 241 239 235 240 255 221 227 212 183 171
309 310 306 302 303 306 307 309 308 318 330 331 321 324 322 320 319 315 307 303 310 270 267 279 274 267 266 264 265 269 268 269 266 246 238 229 213 216 213 222 215 189 176
316 314 315 310 307 313 312 313 318 314 319 317 321 329 334 328 319 306 299 288 297 297 289 278 267 258 256 255 255 258 260 262 261 267 217 200 196 194 212 207 177 151 151
326 327 328 327 329 329 328 327 326 329 328 324 324 327 329 330 328 327 326 315 282 271 267 272 273 270 267 264 267 269 266 267 257 239 209 200 192 195 193 142 134 142 127
332 337 337 338 337 340 340 340 337 335 332 329 325 323 322 320 323 325 327 322 313 301 293 285 285 288 287 282 274 263 257 253 257 210 186 191 178 167 151 124 121 118 116
326 336 343 348 344 347 342 341 341 340 337 332 330 329 334 335 334 329 329 327 328 321 312 310 309 310 306 293 280 273 246 234 244 217 180 161 151 144 140 132 136 122 120
329 335 345 353 351 347 345 346 344 344 342 336 334 334 338 337 334 330 329 327 327 327 328 320 317 326 324 335 339 340 327 225 213 174 144 135 138 139 139 127 138 112 113
356 0 359 354 353 355 355 351 349 347 343 345 342 338 336 336 333 331 328 329 328 329 327 325 325 329 326 343 346 355 0 353 68 129 120 110 117 122 116 107 95 82 98
6 2 4 0 359 357 350 353 352 351 348 348 346 343 338 336 336 335 330 330 329 325 326 329 334 346 334 357 354 5 356 6 45 66 81 90 106 107 89 87 70 99 134
13 5 8 5 2 358 356 353 351 350 350 348 347 345 342 340 337 334 334 332 329 326 330 331 335 344 344 4 353 350 340 9 56 36 82 68 66 68 70 78 357 126 143